Joplin, MO

4:43 PM CST on December 07, 2019 (GMT -0600)
Joplin Regional

Weather History for KJLN - June, 2019

Change the Weather History Date:

Tuesday, June 11, 2019

  Actual Average Record
Temperature  
Mean Temperature 65 °F 74 °F  
Max Temperature 79 °F 85 °F 103 °F (1953)
Min Temperature 51 °F 64 °F 50 °F (1955)
Degree Days  
Heating Degree Days 0 0  
Month to date heating degree days 0 2  
Since 1 June heating degree days 0 2  
Since 1 July heating degree days 4415 4071  
Cooling Degree Days 0 10  
Month to date cooling degree days 87 90  
Year to date cooling degree days 240 270  
Since 1 June cooling degree days 87 90  
Growing Degree Days 15 (Base 50)    
Moisture  
Dew Point 51 °F    
Average Humidity 59    
Maximum Humidity 89    
Minimum Humidity 37    
Precipitation  
Precipitation 0.00 in 0.20 in 3.60 in (2007)
Month to date precipitation 0.39 2.23  
Year to date precipitation 28.54 20.18  
Sea Level Pressure  
Sea Level Pressure 30.14 in    
Wind  
Wind Speed 4 mph ()    
Max Wind Speed 17 mph    
Max Gust Speed 23 mph    
Visibility 10.0 miles    
Events      
T = Trace of Precipitation, MM = Missing Value Source: Averaged Metar Reports

Daily Weather History Graph

Daily Weather History Graph

Search for Another Location

Airport or City:

Astronomy

Jun. 11, 2019 Rise Set
Actual Time 5:57 AM CDT 8:38 PM CDT
Civil Twilight 5:26 AM CDT 9:08 PM CDT
Nautical Twilight 4:48 AM CDT 9:47 PM CDT
Astronomical Twilight 4:05 AM CDT 10:30 PM CDT
Moon 2:47 PM CDT (6/11) 2:31 AM CDT (6/11)
Length of Visible Light 15h 42m
Length of Day
14h 40m
Waxing Gibbous, 66% of the Moon is Illuminated
Jun 11
Waxing Gibbous
Jun 17
Full
Jun 25
Last Quarter
Jul 2
New
Jul 9
First Quarter

Hourly Weather History & Observations

Time (CDT) Temp. Dew Point Humidity Pressure Visibility Wind Dir Wind Speed Gust Speed Precip Events Conditions
12:53 AM 55.0 °F 52.0 °F 89% 30.25 in 10.0 mi Calm Calm - N/A   Clear
1:53 AM 55.0 °F 52.0 °F 89% 30.25 in 10.0 mi Calm Calm - N/A   Clear
2:53 AM 55.0 °F 51.1 °F 86% 30.24 in 10.0 mi Calm Calm - N/A   Clear
3:53 AM 53.1 °F 50.0 °F 89% 30.23 in 10.0 mi East 4.6 mph - N/A   Clear
4:53 AM 55.9 °F 48.9 °F 77% 30.22 in 10.0 mi Calm Calm - N/A   Clear
5:53 AM 54.0 °F 48.9 °F 83% 30.22 in 10.0 mi Calm Calm - N/A   Clear
6:53 AM 57.0 °F 46.9 °F 69% 30.22 in 10.0 mi Variable 4.6 mph - N/A   Clear
7:53 AM 62.1 °F 51.1 °F 67% 30.22 in 10.0 mi Calm Calm - N/A   Clear
8:53 AM 66.9 °F 54.0 °F 63% 30.23 in 10.0 mi SSE 3.5 mph - N/A   Clear
9:53 AM 70.0 °F 51.1 °F 51% 30.21 in 10.0 mi South 11.5 mph - N/A   Clear
10:53 AM 73.0 °F 50.0 °F 44% 30.20 in 10.0 mi South 13.8 mph 20.7 mph N/A   Clear
11:53 AM 73.9 °F 48.0 °F 40% 30.17 in 10.0 mi SSE 16.1 mph 21.9 mph N/A   Clear
12:53 PM 75.0 °F 51.1 °F 43% 30.15 in 10.0 mi SSE 10.4 mph 19.6 mph N/A   Clear
1:53 PM 77.0 °F 52.0 °F 42% 30.12 in 10.0 mi South 8.1 mph - N/A   Clear
2:53 PM 78.1 °F 50.0 °F 37% 30.10 in 10.0 mi SSW 9.2 mph - N/A   Partly Cloudy
3:53 PM 78.1 °F 50.0 °F 37% 30.06 in 10.0 mi South 11.5 mph - N/A   Clear
4:53 PM 78.1 °F 53.1 °F 42% 30.04 in 10.0 mi SSE 10.4 mph - N/A   Clear
5:53 PM 75.0 °F 52.0 °F 44% 30.03 in 10.0 mi South 6.9 mph - N/A   Clear
6:53 PM 73.9 °F 52.0 °F 46% 30.03 in 10.0 mi SSW 6.9 mph - N/A   Partly Cloudy
7:53 PM 72.0 °F 52.0 °F 49% 30.02 in 10.0 mi SSW 4.6 mph - N/A   Clear
8:53 PM 68.0 °F 53.1 °F 59% 30.02 in 10.0 mi South 5.8 mph - N/A   Mostly Cloudy
9:53 PM 68.0 °F 52.0 °F 56% 30.03 in 10.0 mi SSW 4.6 mph - N/A   Mostly Cloudy
10:53 PM 68.0 °F 52.0 °F 56% 30.04 in 10.0 mi SSW 3.5 mph - N/A   Mostly Cloudy
11:53 PM 63.0 °F 53.1 °F 70% 30.02 in 10.0 mi South 4.6 mph - N/A   Clear